SCP
0 0 0 0 0 0 0 0 0 0 0 0 0 0 0 0 0 0 0 0 0 0 0 0 0 0 0 0 0 0 0 0 0 0 0 0 0 0 0 0 0 0 0 0
0 0 0 0 0 0 0 0 0 0 0 0 0 0 0 0 0 0 0 0 0 0 0 0 0 0 0 0 0 0 0 0 0 0 0 0 0 0 0 0 0 0 0 0
0 0 0 0 0 0 0 0 0 0 0 0 0 0 0 0 0 0 0 0 0 0 0 0 0 0 0 0 0 0 0 0 0 0 0 0 0 0 0 0 0 0 0 0
0 0 0 0 0 0 0 0 0 0 0 0 0 0 0 0 0 0 0 0 0 0 0 0 0 0 0 0 0 0 0 0 0 0 0 0 0 0 0 0 0 0 0 0
0 0 0 0 0 0 0 0 0 0 0 0 0 0 0 0 0 0 0 0 0 0 0 0 0 0 0 0 0 0 0 0 0 0 0 0 0 0 0 0 0 0 0 0
0 0 0 0 0 0 0 0 0 0 0 0 0 0 0 0 0 0 0 0 0 0 0 0 0 0 0 0 0 0 0 0 0 0 0 0 0 0 0 0 0 0 0 0
0 0 0 0 0 0 0 0 0 0 0 0 0 0 0 0 0 0 0 0 0 0 0 0 0 0 0 0 0 0 0 0 0 0 0 0 0 0 0 0 0 0 0 0
0 0 0 0 0 0 0 0 0 0 0 0 0 0 0 0 0 0 0 0 0 0 0 0 0 0 0 0 0 0 0 0 0 0 0 0 0 0 0 0 0 0 0 0
0 0 0 0 0 0 0 0 0 0 0 0 0 0 0 0 0 0 0 0 0 0 0 0 0 0 0 0 0 0 0 0 0 0 0 0 0 0 0 0 0 0 0 0
0 0 0 0 0 0 0 0 0 0 0 0 0 0 0 0 0 0 0 0 0 0 0 0 0 0 0 0 0 0 0 0 0 0 0 0 0 0 0 0 0 0 0 0
0 0 0 0 0 0 0 0 0 0 0 0 0 0 0 0 0 0 0 0 0 0 0 0 0 0 0 0 0 0 0 0 0 0 0 0 0 0 0 0 0 0 0 0
0 0 0 0 0 0 0 0 0 0 0 0 0 0 0 0 0 0 0 0 0 0 0 0 0 0 0 0 0 0 0 0 0 0 0 0 0 0 0 0 0 0 0 0
0 0 0 0 0 0 0 0 0 0 0 0 0 0 0 0 0 0 0 0 0 0 0 0 0 0 0 0 0 0 0 0 0 0 0 0 0 0 0 0 0 0 0 0
0 0 0 0 0 0 0 0 0 0 0 0 0 0 0 0 0 0 0 0 0 0 0 0 0 0 0 0 0 0 0 0 0 0 0 0 0 0 0 0 0 0 0 0
0 0 0 0 0 0 0 0 0 0 0 0 0 0 0 0 0 0 0 0 0 0 0 0 0 0 0 0 0 0 0 0 0 0 0 0 0 0 0 0 0 0 0 0
0 0 0 0 0 0 0 0 0 0 0 0 0 0 0 0 0 0 0 0 0 0 0 0 0 0 0 0 0 0 0 0 0 0 0 0 0 0 0 0 0 0 0 0
0 0 0 0 0 0 0 0 0 0 0 0 0 0 0 0 0 0 0 0 0 0 0 0 0 0 0 0 0 0 0 0 0 0 0 0 0 0 0 0 0 0 0 0
0 0 0 0 0 0 0 0 0 0 0 0 0 0 0 0 0 0 0 0 0 0 0 0 0 0 0 0 0 0 0 0 0 0 0 0 0 0 0 0 0 0 0 0
0 0 0 0 0 0 0 0 0 0 0 0 0 0 0 0 0 0 0 0 0 0 0 0 0 0 0 0 0 0 0 0 0 0 0 0 0 0 0 0 0 0 0 0
0 0 0 0 0 0 0 0 0 0 0 0 0 0 0 0 0 0 0 0 0 0 0 0 0 0 0 0 0 0 0 0 0 0 0 0 0 0 0 0 0 0 0 0
0 0 0 0 0 0 0 0 0 0 0 0 0 0 0 0 0 0 0 0 0 0 0 0 0 0 0 0 0 0 0 0 0 0 0 0 0 0 0 0 0 0 0 0
0 0 0 0 0 0 0 0 0 0 0 0 0 0 0 0 0 0 0 0 0 0 0 0 0 0 0 0 0 0 0 0 0 0 0 0 0 0 0 0 0 0 0 0
0 0 0 0 0 0 0 0 0 0 0 0 0 0 0 0 0 0 0 0 0 0 0 0 0 0 0 0 0 0 0 0 0 0 0 0 0 0 0 0 0 0 0 0
0 0 0 0 0 0 0 0 0 0 0 0 0 0 0 0 0 0 0 0 0 0 0 0 0 0 0 0 0 0 0 0 0 0 0 0 0 0 0 0 0 0 0 0
0 0 0 0 0 0 0 0 0 0 0 0 0 0 0 0 0 0 0 0 0 0 0 0 0 0 0 0 0 0 0 0 0 0 0 0 0 0 0 0 0 0 0 0
0 0 0 0 0 0 0 0 0 0 0 0 0 0 0 0 0 0 0 0 0 0 0 0 0 0 0 0 0 0 0 0 0 0 0 0 0 0 0 0 0 0 0 0
0 0 0 0 0 0 0 0 0 0 0 0 0 0 0 0 0 0 0 0 0 0 0 0 0 0 0 0 0 0 0 0 0 0 0 0 0 0 0 0 0 0 0 0
Wind_Speed
6 5 6 8 10 12 13 13 10 9 10 11 9 8 8 7 7 8 9 11 14 14 12 11 10 10 9 9 8 7 7 6 5 4 3 3 3 3 3 4 5 5 5 6
5 6 6 7 8 11 12 12 12 9 11 9 7 4 5 7 8 10 12 13 13 12 12 12 12 11 10 9 7 7 7 5 4 4 3 3 3 3 4 4 5 5 6 7
4 3 2 9 10 10 8 9 10 15 17 8 6 8 9 9 10 12 12 12 12 13 13 13 12 12 11 9 7 7 6 5 4 4 3 4 3 4 5 5 5 6 7 7
4 4 11 10 7 10 10 10 11 9 8 8 11 8 6 7 9 10 9 9 10 10 10 9 9 9 9 8 8 6 5 4 4 3 4 4 4 5 5 5 5 6 7 7
5 6 9 7 5 7 9 10 9 12 10 5 2 1 3 3 5 7 7 7 7 8 9 9 10 10 9 7 6 5 5 4 4 4 4 4 5 6 5 5 6 6 6 7
6 6 9 9 7 5 5 8 7 9 10 7 7 3 6 3 3 4 5 6 8 8 9 10 8 9 9 7 6 5 5 4 4 4 4 5 6 6 5 5 6 6 7 7
7 7 9 9 3 6 6 10 5 7 8 9 9 7 3 5 5 6 7 8 9 10 9 8 8 8 7 6 5 5 4 3 3 4 4 5 5 5 5 5 6 6 8 8
7 7 11 6 7 10 9 3 3 4 5 7 5 4 5 6 7 8 8 8 9 9 7 6 7 8 6 5 4 3 3 3 3 4 4 4 5 5 5 6 6 7 7 8
11 11 6 8 10 7 5 5 5 5 5 7 7 6 6 6 7 7 8 8 7 9 8 5 5 6 6 4 3 3 3 3 4 4 4 4 5 6 5 5 5 6 6 8
5 7 5 6 5 3 5 6 5 5 7 8 8 8 8 8 7 7 7 7 7 8 7 5 4 4 4 3 3 3 3 4 4 4 5 5 4 4 5 5 6 6 7 8
6 5 2 4 7 6 4 4 5 5 6 8 9 9 9 8 8 7 6 5 6 7 6 5 4 3 3 3 3 3 4 4 4 5 5 5 5 5 6 6 7 9 7 7
8 9 8 8 7 8 8 7 8 7 5 5 8 9 9 8 7 7 7 6 6 5 5 4 3 3 3 3 3 3 4 4 4 4 4 5 6 7 10 12 17 19 18 17
6 5 5 3 5 7 8 7 7 7 8 7 6 8 9 7 7 7 7 6 6 5 5 4 3 3 4 3 3 4 5 5 4 4 5 5 5 7 9 10 14 17 19 21
5 6 4 4 5 6 6 6 6 6 5 6 7 7 8 7 7 7 7 6 5 4 4 3 3 4 4 4 4 5 5 7 6 5 5 5 6 7 7 9 10 8 11 18
5 5 6 5 5 5 6 7 8 7 6 6 6 8 8 8 8 6 5 4 4 3 3 3 4 5 4 4 5 6 5 5 5 5 5 6 6 7 7 9 9 10 8 10
5 4 6 7 8 7 7 8 8 7 7 7 7 7 7 7 6 5 4 5 4 4 4 4 5 5 4 4 5 5 5 10 9 6 5 6 6 7 7 8 9 9 9 9
8 7 7 7 7 7 7 7 8 8 7 8 8 7 7 7 6 4 3 3 3 4 4 5 6 6 5 5 5 5 5 7 12 8 6 6 7 7 8 9 9 9 9 11
8 9 9 10 10 9 7 7 7 8 7 7 8 8 7 7 6 4 3 2 2 3 5 6 6 6 6 6 5 5 5 5 6 6 7 7 8 8 8 9 10 11 10 11
6 7 8 8 8 9 8 7 7 7 8 8 8 7 5 4 4 3 2 2 3 5 6 6 8 7 6 7 8 5 5 7 7 7 7 12 12 8 8 9 10 10 11 10
7 8 9 8 8 8 8 8 8 7 6 7 7 5 4 3 3 2 2 4 5 6 5 6 6 6 6 7 10 5 6 7 8 8 8 8 9 9 9 10 10 11 10 10
8 9 10 9 8 8 8 8 8 7 6 6 6 5 3 2 2 2 3 5 6 6 6 10 6 5 6 8 10 6 6 7 8 8 8 9 10 10 10 10 10 10 10 10
8 9 10 10 10 8 6 6 7 7 5 4 3 2 2 2 3 3 5 6 6 8 6 5 5 8 11 13 6 6 6 7 8 8 8 9 9 10 10 10 10 10 10 9
8 9 9 9 9 8 6 5 5 5 4 3 2 2 2 3 3 3 5 4 4 9 7 5 9 16 19 10 5 6 7 8 8 8 9 9 9 10 10 11 10 10 9 9
9 9 8 8 8 7 6 3 3 2 2 1 1 2 2 3 3 4 5 8 11 12 7 10 17 19 18 6 5 6 7 8 8 9 9 9 9 9 9 10 10 9 10 11
8 8 7 7 6 4 3 3 2 2 1 1 2 3 3 3 4 5 4 6 11 12 7 10 17 18 11 6 7 8 8 8 10 10 9 9 9 9 9 10 10 10 10 10
6 6 5 4 3 2 2 1 1 1 1 2 3 3 3 3 4 5 5 6 8 12 9 7 8 11 7 7 8 9 9 10 11 9 9 10 10 10 10 10 12 11 10 10
6 5 4 4 3 2 2 1 1 1 2 3 4 4 4 4 4 5 6 6 7 7 7 7 7 7 8 8 8 9 9 8 9 9 9 9 10 10 10 12 11 10 10 10
Wind_Direction
207 202 174 198 204 196 202 209 210 227 228 242 240 234 233 221 200 191 194 193 192 191 187 180 175 172 169 167 164 160 158 166 183 191 196 205 224 246 262 271 274 276 281 284
216 214 204 223 222 208 214 219 226 244 254 243 242 227 229 219 200 199 202 200 196 189 181 179 176 171 165 164 163 157 162 176 184 189 201 219 238 253 266 273 275 276 277 279
216 220 226 243 215 205 209 209 201 226 242 240 235 226 222 217 206 206 205 198 190 187 184 180 175 167 166 164 156 158 167 177 187 195 215 235 247 257 264 268 270 276 276 275
172 168 231 241 208 198 207 224 212 221 234 226 227 230 229 212 203 208 201 191 185 177 170 163 156 151 149 149 154 161 171 185 196 203 225 242 250 258 262 262 266 271 274 274
159 209 258 282 235 188 198 244 223 224 237 233 192 90 297 241 205 200 190 177 168 160 151 146 148 147 142 147 152 162 181 197 207 210 226 241 252 259 262 264 269 268 269 273
161 192 228 235 224 182 153 257 239 209 219 201 143 184 250 217 166 148 136 136 135 133 131 138 143 140 140 151 159 181 195 205 212 213 223 239 251 260 261 261 266 272 275 273
180 212 249 244 219 123 178 238 229 200 201 179 187 206 191 134 123 127 127 128 128 129 133 139 139 135 142 155 182 195 194 204 217 224 233 245 255 259 267 271 276 277 278 277
178 210 242 223 150 183 213 198 175 179 179 174 175 132 130 132 132 130 126 126 127 125 126 131 136 137 148 176 190 184 190 211 231 242 250 256 260 270 272 274 280 282 283 285
195 213 213 186 195 209 172 176 185 173 169 151 147 156 150 145 141 137 134 132 128 129 129 132 140 143 159 186 180 183 205 232 247 256 258 258 261 272 279 275 275 281 282 286
212 241 224 213 214 200 185 188 181 168 158 156 157 158 153 149 148 142 137 135 131 132 136 146 153 156 171 182 182 191 225 246 254 260 268 268 264 262 267 272 274 279 282 285
216 235 205 232 214 197 177 156 145 144 160 163 152 157 159 158 158 151 141 137 138 143 151 162 163 173 186 189 184 213 239 252 259 259 264 272 268 260 264 254 259 276 276 274
208 201 186 212 206 179 168 175 168 154 151 157 159 158 154 156 154 148 144 139 140 146 156 169 175 197 214 210 202 218 246 256 257 262 266 268 278 286 276 276 286 289 290 290
190 178 177 189 171 169 175 176 165 161 158 154 152 150 148 146 149 146 145 148 156 164 172 179 193 221 234 228 221 228 243 255 259 260 265 270 274 281 292 294 288 290 293 295
159 131 143 173 176 169 157 146 135 128 133 138 138 137 137 135 141 148 157 161 158 161 176 190 210 237 243 235 233 242 248 259 263 257 260 265 268 271 277 288 296 291 288 292
188 174 169 158 139 134 131 128 128 133 132 129 133 138 142 145 152 155 151 146 146 165 195 210 231 251 253 243 243 249 252 256 258 258 258 260 265 270 274 278 282 288 289 289
163 135 136 143 151 148 142 145 149 154 149 142 140 142 142 140 138 139 144 150 162 199 221 229 245 256 257 252 253 256 255 270 277 268 262 265 267 271 276 278 281 284 286 290
153 166 167 168 168 164 162 160 158 155 149 147 146 137 131 129 133 147 166 184 198 220 231 238 252 263 262 256 252 255 258 271 281 281 267 267 270 272 275 278 280 283 283 287
187 184 176 170 166 159 152 146 144 143 144 142 134 133 139 149 162 178 193 206 240 265 259 251 255 265 263 260 254 253 258 262 263 265 268 269 274 271 273 276 280 283 285 289
157 152 149 148 148 145 143 141 140 135 132 135 138 145 151 159 167 182 191 215 246 266 269 263 277 277 268 267 273 256 259 266 270 269 269 280 286 278 276 279 282 283 285 287
128 127 126 124 123 126 129 128 126 125 130 133 132 135 147 170 182 197 217 238 241 242 255 272 277 269 267 270 280 263 260 266 271 275 276 276 279 281 280 281 282 283 284 284
121 120 118 117 113 113 121 127 127 128 129 133 141 156 175 199 209 211 229 263 267 256 262 279 277 269 271 276 283 267 264 269 273 276 279 281 283 283 283 283 284 285 285 285
111 113 113 114 111 105 101 108 116 121 122 123 131 146 173 232 248 249 241 245 264 280 282 268 267 278 286 291 276 268 269 273 277 278 279 280 282 284 285 285 285 286 285 283
102 104 105 106 109 105 94 92 102 114 124 139 163 195 221 237 237 250 276 264 264 285 289 269 282 292 297 296 276 273 275 276 278 279 280 280 280 282 283 284 284 284 284 284
95 95 96 97 98 97 92 84 82 89 110 160 222 233 241 261 267 249 252 284 294 296 288 286 296 299 303 294 280 278 277 277 278 279 279 279 279 280 281 283 284 283 282 282
94 94 95 97 94 95 99 90 72 61 41 319 290 280 265 245 258 276 276 277 290 299 291 293 299 302 300 283 280 278 277 276 280 283 279 282 282 281 281 281 281 283 284 283
88 88 84 84 92 96 91 85 66 356 334 314 302 289 282 274 270 276 280 280 282 295 295 288 287 292 285 280 279 279 278 284 288 285 281 281 281 280 281 281 280 281 281 281
77 76 74 66 55 54 56 51 11 319 306 297 296 293 289 289 288 288 289 291 291 290 288 286 284 282 282 281 281 280 280 281 281 280 280 280 280 280 280 280 280 280 280 280